Tracking 19827 objects as of 22-Aug-2019
HD Live streaming from Space Station
objects crossing your sky now

FENGYUN 1C DEB

Track FENGYUN 1C DEB now!
10-day predictions


NORAD ID: 30400
Int'l Code: 1999-025ADP
Perigee: 735.9 km
Apogee: 1,145.7 km
Inclination: 99.2 °
Period: 103.7 minutes
Semi major axis: 7311 km
RCS: 0.0229 m2 (small)
Launch date: May 10, 1999
Source: People's Republic of China (PRC)
Launch site: Taiyaun Space Center, China (TSC)

Note: This is SATELLITE DEBRIS
aabbcc
Your satellite tracking list
Your tracking list is empty




NASA's NSSDC Master Catalog

Two Line Element Set (TLE):
1 30400U 99025ADP 19232.69620973 +.00000838 +00000-0 +53455-3 0  9995
2 30400 099.1568 145.0316 0280233 148.8945 272.0114 13.88567283633699
Source of the keplerian elements: AFSPC